Orbital Elements at Epoch 2459200.5 (2020-Dec-17.0) TDB
Reference: JPL 24 (heliocentric ecliptic J2000)
Element | Value | Uncertainty (1-sigma) | Units |
e | .058968692491577 | 4.2953e-08 | |
a | 2.855055960139738 | 1.7184e-08 | au |
q | 2.686697043180014 | 1.2782e-07 | au |
i | 3.362325272285805 | 4.0451e-06 | deg |
node | 331.8416124834354 | 9.072e-05 | deg |
peri | 20.54672137230006 | 0.0001003 | deg |
M | 285.1527204514879 | 4.4417e-05 | deg |
tp | 2459566.848049305157 (2021-Dec-18.34804931) | 0.00021839 | TDB |
period | 1762.058668603648 4.82 | 1.5908e-05 4.355e-08 | d yr |
n | .2043064776528035 | 1.8445e-09 | deg/d |
Q | 3.023414877099463 | 1.8198e-08 | au |
|
| | Orbit Determination Parameters
Additional Information
|